JFA61K EGWU-LFPB

Flight info

Callsign JFA61K
Flight time 0h 46m
Altitude 29000
Route CPT DCT MID DCT XIDIL UM605 PETAX UZ296 VELOL
Aircraft PC24/M-SBDGIRWY/LB2

Departure

Time 2026-05-05 10:21
Airport RAF Northolt (EGWU)

Arrival

Time 2026-05-05 11:08
Airport Paris-Le Bourget International Airport (LFPB)
Time Latitude Longitude Altitude Speed Heading
2026-05-05 10:06 51.55053 -0.41605 116 ft 0 kts 97°
2026-05-05 10:17 51.55053 -0.41602 116 ft 2 kts 90°
2026-05-05 10:17 51.55062 -0.41588 115 ft 1 kts 16°
2026-05-05 10:18 51.55098 -0.41589 117 ft 13 kts 339°
2026-05-05 10:18 51.55106 -0.41793 118 ft 29 kts 251°
2026-05-05 10:18 51.55020 -0.42166 117 ft 40 kts 249°
2026-05-05 10:18 51.54949 -0.42530 117 ft 24 kts 270°
2026-05-05 10:19 51.54965 -0.42799 116 ft 27 kts 275°
2026-05-05 10:19 51.54971 -0.42899 115 ft 0 kts 276°
2026-05-05 10:19 51.54972 -0.42914 115 ft 5 kts 277°
2026-05-05 10:20 51.54985 -0.43021 113 ft 15 kts 293°
2026-05-05 10:20 51.55041 -0.42979 111 ft 0 kts 66°
2026-05-05 10:20 51.55056 -0.42915 114 ft 31 kts 70°
2026-05-05 10:20 51.55242 -0.42108 126 ft 120 kts 68°
2026-05-05 10:21 51.55582 -0.40590 566 ft 165 kts 68°
2026-05-05 10:21 51.56131 -0.38748 1133 ft 190 kts 46°
2026-05-05 10:21 51.57201 -0.37672 1651 ft 178 kts 17°
2026-05-05 10:21 51.58441 -0.37306 2131 ft 195 kts 10°
2026-05-05 10:22 51.59784 -0.36929 2405 ft 199 kts 12°
2026-05-05 10:22 51.61183 -0.36540 2677 ft 205 kts 11°
2026-05-05 10:22 51.62586 -0.36172 3036 ft 207 kts 11°
2026-05-05 10:22 51.64017 -0.35795 3550 ft 210 kts 10°
2026-05-05 10:23 51.65493 -0.35879 4061 ft 217 kts 350°
2026-05-05 10:23 51.66794 -0.37180 4603 ft 236 kts 313°
2026-05-05 10:23 51.67505 -0.39619 5381 ft 257 kts 279°
2026-05-05 10:23 51.67263 -0.42537 6183 ft 269 kts 253°
2026-05-05 10:24 51.66602 -0.45403 6951 ft 277 kts 248°
2026-05-05 10:24 51.65884 -0.48305 7630 ft 283 kts 249°
2026-05-05 10:24 51.65208 -0.51295 8070 ft 280 kts 251°
2026-05-05 10:24 51.64570 -0.54235 8987 ft 282 kts 251°
2026-05-05 10:25 51.63903 -0.57224 9873 ft 288 kts 251°
2026-05-05 10:25 51.63214 -0.60274 10606 ft 291 kts 251°
2026-05-05 10:25 51.62320 -0.63210 11317 ft 299 kts 231°
2026-05-05 10:25 51.60617 -0.65068 12049 ft 302 kts 198°
2026-05-05 10:26 51.58504 -0.65478 12834 ft 313 kts 178°
2026-05-05 10:26 51.56291 -0.65235 13653 ft 325 kts 174°
2026-05-05 10:26 51.54003 -0.64914 14400 ft 335 kts 176°
2026-05-05 10:26 51.51629 -0.64782 14942 ft 343 kts 179°
2026-05-05 10:27 51.49221 -0.64744 15439 ft 349 kts 179°
2026-05-05 10:27 51.46788 -0.64631 15944 ft 350 kts 177°
2026-05-05 10:27 51.44349 -0.64473 16456 ft 352 kts 178°
2026-05-05 10:27 51.41890 -0.64339 16897 ft 356 kts 178°
2026-05-05 10:28 51.39504 -0.63437 17264 ft 351 kts 152°
2026-05-05 10:28 51.37586 -0.61057 18079 ft 351 kts 139°
2026-05-05 10:28 51.35750 -0.58433 18824 ft 356 kts 139°
2026-05-05 10:28 51.33824 -0.55910 19548 ft 360 kts 143°
2026-05-05 10:29 51.31810 -0.53512 20289 ft 363 kts 144°
2026-05-05 10:29 51.29797 -0.51053 21047 ft 365 kts 143°
2026-05-05 10:29 51.27834 -0.48554 21816 ft 366 kts 142°
2026-05-05 10:29 51.25834 -0.46027 22610 ft 367 kts 143°
2026-05-05 10:30 51.23818 -0.43535 23398 ft 367 kts 143°
2026-05-05 10:30 51.21785 -0.41021 23901 ft 373 kts 143°
2026-05-05 10:30 51.19728 -0.38458 24376 ft 378 kts 143°
2026-05-05 10:30 51.17647 -0.35869 24857 ft 381 kts 143°
2026-05-05 10:31 51.15547 -0.33265 25349 ft 384 kts 143°
2026-05-05 10:31 51.13435 -0.30651 25846 ft 385 kts 143°
2026-05-05 10:31 51.11315 -0.28029 26354 ft 386 kts 144°
2026-05-05 10:31 51.09190 -0.25401 26866 ft 386 kts 144°
2026-05-05 10:32 51.07067 -0.22781 27394 ft 386 kts 144°
2026-05-05 10:32 51.04944 -0.20165 27803 ft 389 kts 144°
2026-05-05 10:32 51.02790 -0.17514 28071 ft 394 kts 144°
2026-05-05 10:32 51.00617 -0.14842 28349 ft 397 kts 144°
2026-05-05 10:33 50.98418 -0.12141 28627 ft 400 kts 144°
2026-05-05 10:33 50.96214 -0.09436 28904 ft 402 kts 144°
2026-05-05 10:33 50.91752 -0.03973 28964 ft 405 kts 144°
2026-05-05 10:34 50.87301 0.01464 28963 ft 404 kts 144°
2026-05-05 10:34 50.82850 0.06887 28962 ft 404 kts 144°
2026-05-05 10:35 50.78395 0.12301 28956 ft 404 kts 144°
2026-05-05 10:35 50.73960 0.17677 28955 ft 404 kts 144°
2026-05-05 10:36 50.69493 0.23079 28950 ft 405 kts 144°
2026-05-05 10:36 50.65031 0.28464 28946 ft 403 kts 144°
2026-05-05 10:37 50.60587 0.33811 28946 ft 401 kts 144°
2026-05-05 10:37 50.56136 0.39154 28940 ft 404 kts 144°
2026-05-05 10:38 50.51660 0.44516 28940 ft 402 kts 144°
2026-05-05 10:38 50.49434 0.47177 28522 ft 402 kts 144°
2026-05-05 10:38 50.47222 0.49818 27998 ft 398 kts 144°
2026-05-05 10:39 50.45017 0.52446 27472 ft 398 kts 143°
2026-05-05 10:39 50.42818 0.55066 26947 ft 396 kts 143°
2026-05-05 10:39 50.40633 0.57666 26423 ft 393 kts 143°
2026-05-05 10:39 50.38465 0.60242 26050 ft 387 kts 143°
2026-05-05 10:40 50.36319 0.62788 25961 ft 389 kts 143°
2026-05-05 10:40 50.34190 0.65377 25900 ft 388 kts 141°
2026-05-05 10:40 50.32079 0.68044 25489 ft 392 kts 141°
2026-05-05 10:40 50.29977 0.70672 24874 ft 383 kts 141°
2026-05-05 10:41 50.27908 0.73250 24274 ft 379 kts 141°
2026-05-05 10:41 50.25859 0.75812 23684 ft 376 kts 141°
2026-05-05 10:41 50.23824 0.78359 23025 ft 373 kts 141°
2026-05-05 10:41 50.21805 0.80877 22345 ft 370 kts 141°
2026-05-05 10:42 50.17940 0.86056 21024 ft 364 kts 131°
2026-05-05 10:42 50.16299 0.89028 20396 ft 361 kts 130°
2026-05-05 10:42 50.14649 0.91948 19903 ft 353 kts 130°
2026-05-05 10:43 50.13075 0.94722 19446 ft 332 kts 130°
2026-05-05 10:43 50.11584 0.97377 19015 ft 320 kts 130°
2026-05-05 10:43 50.10132 0.99964 18601 ft 316 kts 130°
2026-05-05 10:43 50.08680 1.02541 18179 ft 317 kts 130°
2026-05-05 10:44 50.07225 1.05113 17738 ft 316 kts 130°
2026-05-05 10:44 50.05779 1.07672 17314 ft 314 kts 130°
2026-05-05 10:44 50.04338 1.10218 16903 ft 313 kts 129°
2026-05-05 10:44 50.02902 1.12756 16486 ft 312 kts 130°
2026-05-05 10:45 50.01470 1.15284 16076 ft 311 kts 129°
2026-05-05 10:45 50.00041 1.17800 15662 ft 310 kts 129°
2026-05-05 10:45 49.98620 1.20302 15255 ft 308 kts 129°
2026-05-05 10:45 49.97207 1.22790 14848 ft 306 kts 129°
2026-05-05 10:46 49.95797 1.25264 14445 ft 305 kts 129°
2026-05-05 10:46 49.94385 1.27715 14036 ft 304 kts 132°
2026-05-05 10:46 49.92725 1.29752 13633 ft 306 kts 145°
2026-05-05 10:46 49.90907 1.31441 13222 ft 303 kts 146°
2026-05-05 10:47 49.89112 1.33143 12828 ft 302 kts 146°
2026-05-05 10:47 49.87322 1.34838 12440 ft 300 kts 146°
2026-05-05 10:47 49.85562 1.36488 12060 ft 298 kts 146°
2026-05-05 10:47 49.83796 1.38144 11666 ft 296 kts 146°
2026-05-05 10:48 49.82045 1.39791 11282 ft 293 kts 146°
2026-05-05 10:48 49.80306 1.41426 10905 ft 292 kts 146°
2026-05-05 10:48 49.78576 1.43048 10527 ft 290 kts 146°
2026-05-05 10:48 49.76855 1.44660 10151 ft 289 kts 146°
2026-05-05 10:49 49.75142 1.46262 9772 ft 287 kts 146°
2026-05-05 10:49 49.73438 1.47856 9375 ft 285 kts 146°
2026-05-05 10:49 49.71730 1.49379 9004 ft 283 kts 152°
2026-05-05 10:49 49.69852 1.50278 8937 ft 286 kts 166°
2026-05-05 10:50 49.67872 1.50641 8914 ft 287 kts 171°
2026-05-05 10:50 49.65876 1.50982 8905 ft 289 kts 170°
2026-05-05 10:50 49.63878 1.51337 8906 ft 289 kts 171°
2026-05-05 10:50 49.61880 1.51674 8905 ft 288 kts 171°
2026-05-05 10:51 49.59885 1.52007 8910 ft 289 kts 171°
2026-05-05 10:51 49.57884 1.52346 8911 ft 289 kts 171°
2026-05-05 10:51 49.55885 1.52689 8907 ft 289 kts 171°
2026-05-05 10:51 49.53886 1.53026 8902 ft 289 kts 171°
2026-05-05 10:52 49.51883 1.53366 8810 ft 290 kts 171°
2026-05-05 10:52 49.49879 1.53705 8655 ft 289 kts 171°
2026-05-05 10:52 49.47877 1.54044 8481 ft 289 kts 171°
2026-05-05 10:52 49.45880 1.54381 8298 ft 288 kts 171°
2026-05-05 10:53 49.43895 1.54715 8119 ft 287 kts 171°
2026-05-05 10:53 49.41918 1.55049 7924 ft 286 kts 171°
2026-05-05 10:53 49.39943 1.55382 7737 ft 285 kts 170°
2026-05-05 10:53 49.37971 1.55714 7548 ft 284 kts 170°
2026-05-05 10:54 49.36014 1.56069 7355 ft 282 kts 167°
2026-05-05 10:54 49.34168 1.56981 7169 ft 277 kts 152°
2026-05-05 10:54 49.32544 1.58510 6980 ft 273 kts 138°
2026-05-05 10:54 49.31226 1.60551 6896 ft 266 kts 125°
2026-05-05 10:55 49.30268 1.62949 6887 ft 264 kts 112°
2026-05-05 10:55 49.29696 1.65598 6890 ft 261 kts 99°
2026-05-05 10:55 49.29504 1.68347 6886 ft 261 kts 91°
2026-05-05 10:55 49.29335 1.71117 6881 ft 262 kts 98°
2026-05-05 10:56 49.28770 1.73784 6873 ft 265 kts 111°
2026-05-05 10:56 49.27814 1.76207 6878 ft 268 kts 124°
2026-05-05 10:56 49.26517 1.78227 6877 ft 272 kts 137°
2026-05-05 10:56 49.24933 1.79835 6884 ft 274 kts 145°
2026-05-05 10:57 49.23315 1.81391 6887 ft 275 kts 143°
2026-05-05 10:57 49.21709 1.82953 6827 ft 272 kts 144°
2026-05-05 10:57 49.20105 1.84504 6698 ft 274 kts 144°
2026-05-05 10:57 49.18487 1.86065 6532 ft 276 kts 144°
2026-05-05 10:58 49.16868 1.87627 6357 ft 274 kts 143°
2026-05-05 10:58 49.15253 1.89177 6175 ft 274 kts 144°
2026-05-05 10:58 49.14170 1.90221 6047 ft 271 kts 144°
2026-05-05 10:58 49.12586 1.91748 5872 ft 268 kts 144°
2026-05-05 10:59 49.11015 1.93259 5694 ft 267 kts 144°
2026-05-05 10:59 49.09973 1.94261 5575 ft 267 kts 144°
2026-05-05 10:59 49.08785 1.95404 5442 ft 267 kts 144°
2026-05-05 10:59 49.07211 1.96915 5271 ft 267 kts 144°
2026-05-05 11:00 49.05645 1.98414 5165 ft 265 kts 144°
2026-05-05 11:00 49.04085 1.99912 5028 ft 265 kts 144°
2026-05-05 11:00 49.02518 2.01413 4875 ft 267 kts 144°
2026-05-05 11:00 49.00955 2.02907 4706 ft 263 kts 144°
2026-05-05 11:01 48.99405 2.04389 4523 ft 263 kts 144°
2026-05-05 11:01 48.97862 2.05868 4346 ft 261 kts 144°
2026-05-05 11:01 48.96331 2.07325 4166 ft 253 kts 145°
2026-05-05 11:01 48.94904 2.08681 3998 ft 230 kts 144°
2026-05-05 11:02 48.93610 2.09913 3847 ft 209 kts 144°
2026-05-05 11:02 48.92427 2.11041 3715 ft 192 kts 143°
2026-05-05 11:02 48.91325 2.12113 3642 ft 186 kts 140°
2026-05-05 11:02 48.90452 2.13527 3533 ft 184 kts 119°
2026-05-05 11:03 48.89947 2.15287 3420 ft 180 kts 101°
2026-05-05 11:03 48.89850 2.17151 3302 ft 176 kts 84°
2026-05-05 11:03 48.90210 2.18905 3181 ft 174 kts 67°
2026-05-05 11:03 48.90659 2.20584 3078 ft 167 kts 67°
2026-05-05 11:04 48.91097 2.22231 2997 ft 169 kts 67°
2026-05-05 11:04 48.91549 2.23918 2802 ft 174 kts 67°
2026-05-05 11:04 48.92002 2.25617 2566 ft 173 kts 65°
2026-05-05 11:04 48.92449 2.27293 2336 ft 170 kts 66°
2026-05-05 11:05 48.92892 2.28956 2109 ft 164 kts 65°
2026-05-05 11:05 48.93303 2.30498 1877 ft 154 kts 65°
2026-05-05 11:05 48.93699 2.31985 1686 ft 150 kts 65°
2026-05-05 11:05 48.94087 2.33440 1486 ft 152 kts 65°
2026-05-05 11:06 48.94490 2.34946 1264 ft 145 kts 65°
2026-05-05 11:06 48.94850 2.36273 1081 ft 134 kts 64°
2026-05-05 11:06 48.95169 2.37474 894 ft 113 kts 65°
2026-05-05 11:06 48.95459 2.38545 687 ft 110 kts 63°
2026-05-05 11:07 48.95732 2.39589 569 ft 103 kts 63°
2026-05-05 11:07 48.96009 2.40613 556 ft 105 kts 64°
2026-05-05 11:07 48.96285 2.41691 355 ft 112 kts 63°
2026-05-05 11:07 48.96585 2.42773 184 ft 101 kts 65°
2026-05-05 11:08 48.96785 2.43500 176 ft 49 kts 66°
2026-05-05 11:08 48.96891 2.43908 181 ft 36 kts 67°
2026-05-05 11:08 48.96942 2.44235 184 ft 31 kts 103°
2026-05-05 11:08 48.96801 2.44416 191 ft 21 kts 166°
2026-05-05 11:09 48.96696 2.44471 178 ft 16 kts 139°
2026-05-05 11:09 48.96718 2.44532 179 ft 5 kts 329°
2026-05-05 11:09 48.96694 2.44488 178 ft 12 kts 195°
2026-05-05 11:09 48.96658 2.44484 177 ft 0 kts 159°
2026-05-05 11:11 48.96600 2.44512 177 ft 13 kts 163°
2026-05-05 11:11 48.96503 2.44541 176 ft 16 kts 175°
2026-05-05 11:12 48.96377 2.44542 168 ft 17 kts 182°
2026-05-05 11:12 48.96336 2.44651 167 ft 13 kts 98°
2026-05-05 11:12 48.96318 2.44770 167 ft 7 kts 161°
2026-05-05 11:12 48.96290 2.44778 167 ft 0 kts 177°